Location: Brunsbüttel
(52.3892°N, 10.6138°E)
Time: 05:19:53
(UTC+00:00)

Cosmos 2082 Rocket - Pass Details

Date: 19 May 2025
Orbit: 832 x 853 km, 71.0° (Epoch: 14 June)

Event Time Altitude Azimuth Distance (km) Brightness Sun altitude
Exits shadow 23:23:47 - 245° (WSW) 3,179 4.9 -17.6°
Reaches altitude 10° 23:25:55 10° 254° (WSW) 2,444 4.4 -17.6°
Maximum altitude 23:30:56 33° 317° (NW) 1,392 3.7 -17.5°
Drops below altitude 10° 23:35:59 10° 21° (NNE) 2,463 5.8 -17.5°
Sets 23:38:42 0° 31° (NNE) 3,404 6.6 -17.4°
